Flag for Germany Weather past 2 weeks in Kamen, North Rhine-Westphalia, Germany

Now
41 °F

Rain. Passing clouds.


Feels Like: 32 °F
Forecast: 35 / 45 °F
Wind: 18 mph from West

Location: Muenster / Osnabrueck

Current Time: Apr 2, 2015 at 3:48:09 AM

Latest Report: Apr 2, 2015 at 3:20 AM


Visibility: 4 mi

Pressure: 29.80 "Hg

Humidity: 93%

Dew point: 39 °F

Location of KamenLocation

Historic Weather in Kamen — Graph

°F

Kamen temperature yesterday

Maximum temperature yesterday: 45 °F (at 11:20 AM)
Minimum temperature yesterday: 36 °F (at 4:20 AM)
Average temperature yesterday: 40 °F

Past Weeks' High & Low Weather Summary

 TemperatureHumidityPressure
High63 °F (Mar 18, 2:50 PM)100% (Mar 18, 1:20 AM)30.39 "Hg (Mar 18, 1:20 AM)
Low28 °F (Mar 23, 4:20 AM)50% (Mar 30, 3:50 PM)29.12 "Hg (Mar 31, 6:20 AM)
Average43 °F83%29.91 "Hg
* Reported Mar 18 1:20 AM — Apr 2 2:50 AM, Kamen, Weather by CustomWeather, © 2015

Note: Actual official high and low records may vary slightly from our data, if they occured in-between our weather recording intervals... More about our weather records

Advertising

Kamen weather history for previous 24 hours

 ConditionsComfort  
Time TempWeatherWind HumidityBarometerVisibility
2:50 AM
Thu, Apr 2
41 °FLight rain. Passing clouds.20 mph93%29.83 "Hg5 mi
2:20 AM41 °FSprinkles. Passing clouds.17 mph93%29.83 "HgN/A
1:50 AM41 °FSprinkles. Partly cloudy.17 mph87%29.86 "HgN/A
1:20 AM41 °FSprinkles. Partly cloudy.16 mph93%29.86 "Hg4 mi
12:50 AM41 °FRain showers. Passing clouds.16 mph93%29.89 "Hg4 mi
12:20 AM41 °FSprinkles. Partly cloudy.17 mph87%29.89 "HgN/A
11:50 PM
Wed, Apr 1
41 °FPartly cloudy.15 mph87%29.92 "HgN/A
11:20 PM41 °FPassing clouds.17 mph87%29.92 "HgN/A
10:50 PM41 °FSprinkles. Partly cloudy.23 mph87%29.95 "Hg5 mi
10:20 PM41 °FPartly cloudy.10 mph87%29.95 "HgN/A
9:50 PM41 °FPartly cloudy.9 mph81%29.95 "HgN/A
9:20 PM41 °FPassing clouds.8 mph81%29.98 "HgN/A
8:50 PM39 °FBroken clouds.13 mph87%29.98 "HgN/A
8:20 PM39 °FPartly sunny.6 mph87%29.98 "HgN/A
7:50 PM39 °FPartly sunny.9 mph87%30.01 "HgN/A
7:20 PM39 °FSprinkles. Partly sunny.17 mph87%30.01 "Hg5 mi
6:50 PM41 °FSprinkles. Partly sunny.14 mph81%30.01 "HgN/A
6:20 PM39 °FRain showers. Scattered clouds.20 mph87%29.98 "Hg6 mi
5:50 PM43 °FRain showers. Broken clouds.18 mph71%29.98 "HgN/A
5:20 PM41 °FRain showers. Partly sunny.14 mph76%29.98 "HgN/A
4:50 PM43 °FRain showers. Broken clouds.15 mph66%29.98 "HgN/A
4:20 PM45 °FSprinkles. Broken clouds.26 mph66%29.98 "HgN/A
3:50 PM45 °FSprinkles. Scattered clouds.21 mph61%29.95 "HgN/A
3:20 PM45 °FScattered showers. Scattered clouds.20 mph76%29.95 "HgN/A
2:50 PM43 °FSprinkles. Broken clouds.16 mph76%29.98 "HgN/A
2:20 PM45 °FSprinkles. Broken clouds.16 mph66%29.95 "HgN/A
1:50 PM43 °FSprinkles. Broken clouds.8 mph81%29.98 "HgN/A
1:20 PM45 °FRain showers. Broken clouds.22 mph66%29.95 "HgN/A
12:50 PM45 °FSprinkles. Scattered clouds.21 mph71%29.95 "HgN/A
12:20 PM39 °FSprinkles. Scattered clouds.18 mph87%29.95 "HgN/A
11:50 AM45 °FSprinkles. Scattered clouds.23 mph71%29.92 "HgN/A
11:20 AM45 °FSprinkles. Scattered clouds.18 mph76%29.92 "HgN/A
10:50 AM43 °FScattered showers. Partly sunny.18 mph81%29.92 "HgN/A
10:20 AM41 °FScattered showers. Scattered clouds.20 mph87%29.92 "HgN/A
9:50 AM41 °FScattered showers. Scattered clouds.16 mph81%29.92 "HgN/A
9:20 AM39 °FScattered clouds.18 mph87%29.89 "HgN/A
8:50 AM37 °FScattered showers. Scattered clouds.16 mph93%29.89 "HgN/A
8:20 AM37 °FPartly sunny.15 mph93%29.89 "HgN/A
7:50 AM37 °FSprinkles. Passing clouds.20 mph93%29.86 "HgN/A
7:20 AM37 °FSprinkles. Partly cloudy.16 mph87%29.83 "HgN/A
6:50 AM37 °FPartly cloudy.16 mph87%29.83 "HgN/A
6:20 AM36 °FPassing clouds.15 mph93%29.80 "HgN/A
5:50 AM36 °FSprinkles. Partly cloudy.21 mph93%29.80 "HgN/A
5:20 AM37 °FPartly cloudy.15 mph87%29.80 "HgN/A
4:50 AM36 °FSprinkles. Partly cloudy.18 mph93%29.77 "HgN/A
4:20 AM36 °FSprinkles. Partly cloudy.25 mph93%29.77 "HgN/A
3:50 AM39 °FPassing clouds.17 mph81%29.74 "HgN/A
3:20 AM37 °FPassing clouds.14 mph87%29.74 "HgN/A
Weather by CustomWeather, © 2015

See weather overviewHow to use our weather pages